Date,TemperatureHighF,TemperatureAvgF,TemperatureLowF,DewpointHighF,DewpointAvgF,DewpointLowF,HumidityHigh,HumidityAvg,HumidityLow,PressureMaxIn,PressureMinIn,WindSpeedMaxMPH,WindSpeedAvgMPH,GustSpeedMaxMPH,PrecipitationSumIn
2013-5-1,60.6,46.2,30.7,39.1,29.6,24.6,84,56,29,30.59,30.35,9,1,9,0.00
2013-5-2,72.3,53.0,30.9,39.6,33.3,23.5,78,50,26,30.61,30.20,7,0,7,0.00
2013-5-3,73.2,58.0,46.2,46.0,40.4,37.6,77,55,29,30.23,30.10,14,1,14,0.00
2013-5-4,73.6,60.1,39.6,47.4,37.8,32.6,81,48,24,30.22,29.96,18,2,18,0.00
2013-5-5,81.3,62.7,39.4,48.1,40.1,31.1,78,47,22,30.00,29.72,8,0,8,0.00
2013-5-6,84.4,65.2,42.1,53.4,42.5,34.4,79,47,23,29.90,29.64,10,0,10,0.00
2013-5-7,86.2,67.3,44.2,51.7,44.4,36.3,78,47,25,29.86,29.68,13,1,13,0.00
2013-5-8,86.4,69.2,47.1,51.5,46.6,39.3,80,48,25,29.97,29.83,8,0,8,0.00
2013-5-9,88.2,70.4,50.2,56.5,49.1,42.7,80,50,26,30.08,29.91,10,1,10,0.00
2013-5-10,88.9,70.3,48.9,56.2,47.5,40.7,79,48,20,30.17,29.99,7,0,7,0.00
2013-5-11,91.9,70.1,49.8,54.5,49.0,41.9,77,51,25,30.15,29.93,8,1,8,0.00
2013-5-12,88.2,72.7,54.9,58.1,53.1,47.1,79,53,30,30.02,29.87,15,2,15,0.00
2013-5-13,83.1,65.7,52.5,59.2,52.6,46.9,82,64,38,30.10,29.74,22,1,22,0.49
2013-5-14,72.7,61.9,50.7,56.0,45.7,40.3,86,58,36,30.13,29.96,12,1,12,0.00
2013-5-15,73.4,58.7,42.1,50.2,42.3,35.7,82,57,32,30.07,29.84,13,1,13,0.00
2013-5-16,73.2,66.4,52.5,49.9,46.0,42.1,68,49,38,29.93,29.77,9,1,9,0.00
2013-5-17,75.7,61.7,46.0,52.8,46.4,39.4,81,59,40,29.92,29.78,13,1,13,0.00
2013-5-18,64.6,58.7,50.2,51.6,48.2,42.2,82,69,54,30.10,29.92,7,0,7,0.00
2013-5-19,73.2,58.0,47.1,50.1,46.6,41.1,84,68,35,30.22,30.10,15,1,15,0.00
2013-5-20,78.1,62.2,45.0,54.4,47.1,39.5,85,61,36,30.27,29.86,7,0,7,0.00
2013-5-21,76.6,60.2,45.7,54.4,46.4,39.2,82,62,40,29.87,29.50,17,1,17,0.10
2013-5-22,56.1,50.1,39.7,45.4,40.6,33.1,82,70,55,29.97,29.74,13,2,13,0.04
2013-5-23,70.2,54.6,37.8,45.7,35.7,30.1,85,54,25,30.02,29.84,13,2,13,0.00
2013-5-24,59.4,49.4,38.8,49.1,40.4,31.3,79,71,59,30.04,29.91,8,0,8,0.16
2013-5-25,70.9,56.2,41.0,49.9,41.4,35.7,84,61,36,30.04,29.90,10,0,10,0.00
2013-5-26,73.6,57.1,40.5,50.3,44.3,34.0,83,64,38,29.96,29.82,12,1,12,0.02
2013-5-27,75.6,62.6,53.4,55.5,49.7,45.7,86,66,38,29.95,29.71,20,1,20,0.04
2013-5-28,70.9,62.1,55.0,55.1,49.7,45.0,85,66,42,29.81,29.74,13,2,13,0.00
2013-5-29,66.2,56.8,47.5,54.0,48.8,41.8,84,75,59,29.89,29.66,16,0,16,0.22
2013-5-30,66.7,57.8,49.3,51.7,47.2,42.9,84,69,46,30.12,29.89,13,1,13,0.06
2013-5-31,73.2,61.4,47.5,52.7,43.7,38.3,84,56,30,30.24,30.11,6,0,6,0.00